User: anonymous   Login
Location: Caltech
(34.1382°N, 118.1253°W)
Time: 15:31:10
(UTC-07:00)
Language:

BREEZE M DEB (TANK) - Orbit

View from above orbital plane
View from above orbital plane
View from above satellite
View from above satellite

Ground track
Ground track

The orbit data is extracted from the following two-line orbital elements,

1 33437U 08057B   15241.58361541 +.00001813 +00000-0 +34210-3 0  9992
2 33437 049.5644 088.0091 5015784 318.1573 026.3829 05.58114642137049
Epoch (UTC): 29 August 2015 14:00:24
Eccentricity: 0.5015784
inclination: 49.5644°
perigee height: 313 km
apogee height: 13780 km
right ascension of ascending node: 88.0091°
argument of perigee: 318.1573°
revolutions per day: 5.58114642
mean anomaly at epoch: 26.3829°
orbit number at epoch: 13704

The dashed part of the orbit path shows where the satellite is in the earth's shadow,  

DLR